Location: Cedar Brake
(32.2526°N, 97.8459°W)
Time: 08:05:12
(UTC+00:00)

Cosmos 2360 Rocket - Pass Details

Date: 22 April 2026
Orbit: 831 x 845 km, 71.0° (Epoch: 15 May)

Event Time Altitude Azimuth Distance (km) Brightness Sun altitude
Rises 11:04:36 0° 312° (NW) 3,405 5.1 -10.8°
Reaches altitude 10° 11:09:07 10° 278° (W) 2,464 4.1 -9.9°
Maximum altitude 11:10:37 11° 263° (W) 2,387 3.9 -9.6°
Enters shadow 11:10:37 11° 263° (W) 2,387 3.9 -9.6°
